{"data":{"norad_id":58152,"epoch":"2026-05-25T04:00:03.998880Z","epoch_age_seconds":60336,"freshness":"FRESH","line1":"1 58152U 23166C   26145.16671295  .00050050  00000+0  16148-2 0  9995","line2":"2 58152  53.1597 224.6319 0001174  83.4095 310.4185 15.31680917  5808","mean_motion":15.31680917,"eccentricity":0.0001174,"inclination_deg":53.1597,"raan_deg":224.6319,"arg_perigee_deg":83.4095,"mean_anomaly_deg":310.4185,"bstar":0.0016148,"rev_number":580,"period_min":94.014359258352,"perigee_km":469.9928164086,"apogee_km":471.60094608391,"semimajor_km":6848.9338812463,"source":"CELESTRAK","updated_at":"2026-05-25T13:38:18.536324Z"}}